GFSGL_250_rhum_000.txt.gz
RH
98 100 100 100 100 100 97 94 93 82 61 57 41 18 14 14 12 10 8 6 6 6 6 6 6 6 7 7 8 9 9 10 12 14 14 17 20 17 15 12 12 15 15
100 100 100 100 98 100 95 88 72 54 40 28 13 14 14 11 8 6 6 6 6 7 7 7 7 7 6 6 7 7 8 9 10 12 12 14 15 16 14 13 12 11 11
100 98 100 100 95 78 68 55 42 31 21 12 13 11 8 6 6 6 6 7 7 7 7 7 7 7 7 7 7 7 7 8 9 10 11 12 13 13 14 14 11 10 10
100 100 96 84 75 54 38 32 26 16 11 12 9 7 6 6 6 6 7 7 7 7 7 6 7 7 7 8 8 8 8 8 9 9 10 11 11 12 13 14 13 11 9
95 84 73 50 38 34 25 15 12 11 10 7 6 6 6 6 7 7 7 7 6 6 5 5 6 7 7 8 8 8 9 9 9 9 10 11 11 11 12 13 13 12 11
75 63 42 31 29 16 11 11 10 7 6 6 6 6 6 4 4 4 4 4 4 3 3 3 4 4 6 7 8 9 10 10 9 9 9 10 11 10 11 11 12 12 12
45 31 26 17 14 13 11 8 6 6 6 6 5 4 3 3 4 4 4 3 3 3 4 4 4 4 4 5 6 7 7 8 9 8 10 10 11 10 11 11 11 11 10
24 19 14 14 13 9 7 6 6 6 5 3 3 3 4 4 4 4 4 3 3 4 5 5 5 4 4 4 4 5 5 6 6 8 7 7 8 8 8 8 8 9 8
14 13 13 11 7 6 6 6 5 4 3 3 4 4 4 4 4 4 4 4 5 5 5 5 5 4 4 4 4 5 5 5 6 6 5 5 5 6 6 6 6 6 6
13 12 8 6 6 6 6 4 3 3 4 4 4 4 4 5 5 5 5 5 5 6 6 6 5 5 5 6 5 5 6 6 7 7 7 6 6 5 5 6 6 6 6
10 6 6 6 6 5 4 4 4 4 5 4 4 5 6 6 6 5 5 4 5 5 5 5 5 5 5 6 6 6 6 6 6 6 6 6 5 5 5 5 5 5 4
6 6 6 5 4 4 4 4 4 5 5 4 5 5 5 5 5 4 4 4 4 5 5 4 5 5 6 6 6 6 6 7 7 7 6 4 4 4 4 4 3 3 3
6 6 4 4 4 4 4 5 5 5 4 5 5 5 4 4 4 4 4 4 4 4 4 4 5 6 6 6 6 7 7 7 6 5 5 5 5 4 4 4 4 4 3
5 4 4 4 4 4 5 5 6 5 5 5 5 4 4 4 4 4 4 4 4 4 4 5 6 6 7 7 8 8 7 5 5 6 6 6 5 4 4 3 3 3 3
4 4 5 4 5 5 6 6 5 6 6 5 4 4 4 4 4 4 4 4 4 4 4 5 6 7 8 8 8 7 6 6 7 7 6 5 5 4 4 4 4 3 3
4 5 5 5 5 6 6 5 6 6 6 5 4 4 4 3 2 2 3 3 3 4 4 5 6 7 7 7 6 6 7 8 8 7 6 5 5 5 4 4 4 3 3
5 5 5 6 6 6 5 5 5 5 5 5 4 4 3 2 2 2 2 3 3 3 4 4 5 5 6 6 7 8 9 9 8 6 6 6 6 5 4 4 4 3 3
6 6 6 6 6 6 6 6 5 5 4 5 4 3 3 2 2 2 3 3 3 4 4 4 4 5 5 6 7 9 9 9 8 7 7 8 8 6 5 4 4 4 3
6 6 6 6 6 6 6 6 6 5 5 5 4 3 3 3 3 3 4 4 4 5 5 5 5 5 6 7 9 10 10 10 8 8 8 9 9 8 6 5 4 4 4
6 6 6 6 6 7 6 6 5 5 5 4 4 3 3 4 3 4 4 4 5 6 7 7 7 7 7 9 10 11 11 10 8 9 10 10 10 8 7 5 5 4 3
7 7 7 7 7 7 6 6 6 5 4 4 4 4 4 4 4 4 4 4 5 6 8 8 8 9 10 10 10 10 11 10 10 10 10 9 9 9 9 7 6 5 4
7 7 7 7 7 7 7 6 5 4 4 4 4 4 4 4 4 4 4 5 5 5 6 7 8 8 9 9 10 10 11 10 10 10 11 10 10 10 9 8 7 5 4
7 7 7 7 7 7 7 5 5 5 5 5 5 5 4 4 4 4 4 4 4 4 5 6 7 7 8 9 9 10 10 9 10 10 10 10 10 10 8 7 6 6 4
7 7 7 8 7 6 5 5 6 6 6 6 6 5 5 4 4 4 5 5 5 5 5 5 6 6 7 8 8 9 9 8 8 9 9 9 9 9 8 7 6 5 5
7 8 8 7 5 5 6 6 6 6 6 6 6 5 5 4 4 4 4 5 5 5 5 5 5 6 6 6 7 8 8 8 8 8 9 9 8 8 8 7 6 6 5
8 8 6 5 6 6 6 6 6 6 6 6 5 5 5 4 4 4 4 4 4 5 5 5 5 5 5 6 6 6 6 6 6 7 7 7 7 7 7 6 6 5 5

GFSGL_250_rhum_003.txt.gz
RH
90 77 81 100 100 97 75 81 77 72 63 52 43 28 19 13 12 11 10 9 8 6 6 5 6 6 6 6 6 7 6 6 6 6 7 7 8 10 11 12 14 13 16
84 91 98 97 94 84 81 72 65 53 38 23 16 13 12 12 10 7 6 6 5 5 6 6 6 6 7 7 7 7 7 7 7 7 6 6 6 8 9 10 12 12 12
84 88 94 88 75 61 58 52 33 22 15 13 13 12 10 7 6 6 5 5 6 6 6 5 6 6 7 7 7 7 7 7 7 7 7 6 6 6 7 8 10 11 10
100 97 91 64 57 53 45 28 18 15 13 13 11 8 6 6 6 6 5 5 4 3 3 3 3 4 6 6 7 8 7 7 7 7 7 7 6 6 7 7 8 8 9
77 66 58 50 50 39 27 17 14 14 12 9 6 6 6 6 5 4 3 3 3 3 3 3 3 4 4 4 4 5 6 7 8 8 8 8 7 7 7 7 8 8 8
51 54 49 40 27 21 16 14 13 10 7 6 6 6 5 3 4 3 3 3 3 3 4 4 4 4 4 4 4 4 4 6 7 8 8 8 8 8 8 7 8 8 8
45 38 26 19 16 14 13 10 7 6 6 5 4 3 3 3 4 4 4 4 4 3 3 3 4 4 4 4 4 4 4 4 5 7 9 9 9 9 9 9 9 9 9
25 19 16 15 12 10 7 6 6 5 4 3 3 3 4 4 5 4 4 4 4 4 4 5 6 6 5 4 4 4 4 4 4 6 8 9 10 9 10 10 10 10 10
16 14 11 9 7 5 5 5 4 4 4 4 3 4 5 4 4 4 4 4 4 4 5 5 6 5 5 5 5 4 4 5 5 5 6 6 7 8 8 10 10 10 10
13 11 8 6 5 5 5 4 4 4 4 4 4 5 5 4 4 4 4 4 3 4 4 4 4 5 5 6 6 5 5 5 5 5 6 6 6 6 6 6 6 7 7
9 7 6 6 5 4 4 4 4 4 4 5 5 5 4 5 4 4 4 3 3 4 4 4 4 5 5 6 6 6 6 6 6 6 6 6 6 6 6 6 6 6 6
6 5 5 4 4 4 4 5 5 5 5 5 5 5 4 4 4 4 3 3 3 3 4 4 4 5 6 6 6 6 7 7 8 8 8 7 7 6 6 6 6 6 6
6 5 4 4 4 4 5 5 6 6 6 5 5 5 4 4 4 4 4 4 4 4 4 4 4 5 6 6 7 7 7 8 8 8 8 8 7 6 5 4 4 4 3
5 4 4 4 5 5 5 6 6 6 6 6 5 5 4 4 4 4 3 3 3 4 4 4 4 5 6 7 7 8 8 9 9 8 7 6 5 5 6 6 5 4 4
4 4 4 5 5 6 6 6 5 6 6 6 5 5 4 4 4 3 2 2 3 3 4 4 5 5 6 7 8 8 9 9 8 7 6 7 8 7 6 5 4 4 3
4 5 5 6 6 6 6 6 6 6 6 6 5 5 5 4 3 3 2 2 3 3 3 4 4 5 6 7 8 9 9 8 7 7 8 9 8 6 5 5 5 4 4
5 5 6 6 6 6 6 6 7 7 7 6 5 5 4 3 3 3 3 3 3 3 3 4 4 5 5 6 7 8 8 8 8 9 10 9 7 6 6 5 6 6 5
5 6 6 7 6 6 6 6 6 6 6 6 6 4 4 4 3 4 3 3 4 4 4 4 4 4 5 5 6 7 7 7 9 10 10 9 7 7 7 7 6 6 6
6 6 7 7 7 7 6 6 6 6 6 6 4 4 4 4 4 4 4 4 5 5 6 6 6 5 5 6 6 7 7 9 10 10 11 9 8 8 8 8 7 6 6
6 7 7 7 7 6 6 7 7 6 6 4 4 5 5 4 4 4 4 4 5 5 6 7 8 8 8 7 7 8 9 11 11 11 11 9 8 9 9 10 9 7 6
7 7 6 6 7 7 7 8 7 5 4 5 6 6 6 5 5 4 5 5 5 5 6 6 7 8 9 9 9 10 11 11 11 11 10 9 9 9 9 8 9 9 7
7 6 6 7 7 7 8 6 5 5 5 6 6 6 6 6 5 5 4 5 5 5 5 5 5 6 8 8 9 10 10 10 10 10 10 9 8 8 8 8 8 9 8
7 7 7 7 7 7 5 5 5 5 5 5 6 6 6 6 6 5 5 4 5 5 5 5 5 5 6 7 8 8 9 9 9 9 8 8 8 8 8 7 7 7 7
7 7 7 7 6 5 5 5 5 5 5 5 5 6 6 6 6 5 5 4 4 5 5 5 5 5 5 6 6 7 8 8 8 8 8 8 7 7 7 7 7 6 6
7 7 7 5 5 5 5 5 6 6 6 5 6 6 5 5 5 5 5 4 4 5 5 5 5 5 5 5 5 6 7 7 8 7 7 6 6 6 6 6 6 6 6
7 6 6 6 5 5 5 6 6 6 5 5 5 5 5 4 4 4 4 4 4 4 5 4 5 5 5 5 5 5 5 6 6 6 6 6 5 6 6 5 5 6 5

GFSGL_250_rhum_006.txt.gz
RH
99 97 88 75 72 64 52 51 58 63 67 39 28 23 16 13 13 12 11 9 7 5 5 5 5 5 5 5 5 5 5 5 6 5 6 5 5 5 6 5 6 10 12
93 77 64 54 53 51 54 54 51 51 36 22 21 18 15 13 12 9 7 6 5 5 5 5 4 4 3 3 3 4 4 4 6 6 6 6 6 5 5 4 4 7 10
73 74 59 54 62 57 53 44 33 23 18 17 16 13 12 10 7 6 5 5 5 4 4 3 3 3 3 2 3 3 3 3 5 6 6 6 6 6 6 6 5 5 7
64 64 63 64 60 49 31 24 17 15 14 13 11 9 6 5 5 5 4 3 3 3 3 3 4 3 3 3 3 3 3 3 3 6 7 6 6 6 6 6 6 5 5
66 67 55 45 33 29 20 15 13 12 11 9 6 5 5 4 4 4 3 3 3 3 3 4 4 4 4 4 4 3 3 3 3 3 4 6 6 6 7 6 6 6 6
72 61 43 28 15 14 12 11 11 8 6 5 5 4 3 3 4 4 3 3 4 4 4 4 4 4 4 3 3 3 3 3 3 3 3 4 4 6 7 7 8 7 7
60 36 24 15 12 9 8 6 5 5 4 4 3 3 4 4 4 4 4 4 4 4 4 4 4 5 5 4 4 3 4 4 4 4 4 4 4 5 8 8 8 8 8
33 22 12 10 9 8 6 4 4 3 3 3 3 4 4 4 4 4 5 4 3 3 4 4 5 4 5 5 5 5 5 5 5 5 5 4 4 5 7 8 8 9 9
24 12 10 9 7 5 4 4 4 4 4 4 4 4 5 5 4 4 4 4 3 3 4 4 4 4 4 5 5 5 5 5 5 5 5 5 5 5 6 8 8 9 9
11 9 9 7 5 5 4 4 4 4 4 4 4 5 5 5 4 4 4 4 4 4 3 3 3 4 4 5 4 4 5 5 5 5 4 5 5 5 5 5 7 9 9
8 8 6 5 5 4 4 4 4 5 5 5 5 5 4 5 5 4 4 3 3 3 3 3 3 3 4 4 5 5 5 5 6 5 5 5 5 5 6 6 6 6 6
8 7 6 5 4 4 4 4 5 5 5 5 5 5 5 5 4 4 3 3 4 3 3 3 4 4 4 4 5 5 6 6 6 6 6 6 6 7 7 7 7 6 6
7 6 5 4 4 4 5 5 6 6 6 6 6 6 5 5 4 4 4 4 3 2 2 3 4 4 4 5 5 6 6 7 7 7 7 8 8 9 8 8 7 7 7
6 5 5 4 4 5 6 6 6 6 6 6 6 6 5 4 4 4 4 3 2 2 2 3 3 4 5 5 6 7 7 8 8 8 8 9 9 9 9 8 7 6 5
5 5 4 4 5 5 6 6 6 6 6 6 6 6 6 5 5 4 3 3 3 2 2 3 3 4 4 5 7 8 9 9 9 10 10 11 10 9 6 5 6 6 6
5 4 4 5 5 6 6 6 6 6 6 6 6 6 6 5 4 4 3 3 3 3 3 3 3 4 4 5 7 8 9 10 11 11 12 10 7 7 8 9 9 7 6
4 4 5 5 6 6 6 6 6 6 6 6 6 6 5 4 4 4 4 4 4 3 4 4 4 4 4 5 6 8 9 10 10 10 9 8 9 10 10 9 8 7 6
5 5 5 6 7 6 6 6 6 6 7 8 6 5 5 5 6 5 4 4 4 4 4 5 6 5 5 5 6 7 8 8 9 8 8 10 11 11 10 8 6 7 7
5 5 6 6 6 6 6 6 6 7 6 5 5 6 6 7 6 6 5 4 4 5 5 6 7 7 7 6 6 6 7 7 8 8 8 11 12 11 10 8 7 8 9
6 6 6 6 6 6 6 7 7 5 5 5 5 6 6 6 7 6 6 5 4 5 5 6 7 8 8 9 8 8 8 8 8 8 9 11 12 12 10 8 8 8 9
6 6 6 7 6 6 7 7 5 5 6 6 5 6 6 6 7 7 6 6 6 5 5 6 6 7 8 9 10 9 9 9 9 10 11 12 12 11 11 9 9 10 10
6 6 7 6 6 7 6 5 5 6 6 6 6 6 6 6 7 7 6 6 6 5 5 5 6 6 6 7 8 9 9 10 10 11 11 11 11 11 10 8 8 10 10
7 7 6 7 6 6 6 5 6 6 7 7 7 6 6 6 6 6 6 6 6 5 5 5 5 6 6 6 6 7 8 8 8 9 10 10 10 10 9 8 8 8 9
7 6 6 6 6 6 6 6 6 8 8 7 6 6 5 5 5 5 5 5 5 5 5 5 5 5 5 6 6 5 6 6 7 7 8 8 8 8 8 8 7 7 7
7 7 6 6 6 6 6 6 6 7 8 7 5 5 5 5 5 5 4 4 4 4 4 4 4 5 5 5 6 5 5 5 6 6 7 7 7 7 7 6 6 6 6
6 6 5 5 6 7 6 6 7 7 6 6 5 4 4 4 5 4 4 4 4 4 4 4 4 4 4 5 5 5 5 5 5 5 5 6 6 6 6 5 5 5 5

GFSGL_250_rhum_012.txt.gz
RH
46 48 56 59 59 62 72 68 61 60 57 46 36 32 17 10 8 7 6 5 4 4 3 3 2 2 2 2 2 2 2 2 2 3 4 3 4 4 4 4 4 6 8
62 62 59 58 64 68 64 62 61 49 37 32 23 10 8 8 7 6 4 4 3 3 3 3 3 2 2 3 3 2 2 2 3 3 2 2 3 4 4 4 4 4 4
62 67 67 66 71 68 66 55 44 39 36 23 10 8 7 6 5 4 3 3 3 3 3 3 3 3 3 3 3 3 3 3 3 3 2 2 2 2 3 4 4 4 4
73 77 75 78 76 65 49 42 37 28 15 9 7 6 5 4 4 4 3 3 3 3 4 4 3 3 3 3 3 3 3 3 3 3 3 3 3 2 2 2 2 4 5
81 81 78 68 54 42 38 33 28 12 9 7 6 5 4 4 4 4 3 3 4 4 4 3 3 3 3 4 4 3 3 3 3 3 3 3 3 3 3 3 3 2 3
80 68 62 56 46 40 29 24 11 8 7 5 4 4 4 4 4 4 4 4 4 4 4 4 3 3 3 3 3 3 3 3 3 3 4 3 3 3 4 4 4 3 3
74 66 69 54 36 27 22 11 8 6 5 4 4 4 4 4 4 4 5 4 4 4 4 4 4 3 3 3 2 3 3 3 3 4 4 3 3 3 3 4 4 4 3
76 72 55 41 25 20 12 8 7 5 4 4 4 4 4 4 4 5 4 4 4 4 5 4 4 3 3 2 2 3 3 3 3 4 3 4 4 4 3 4 4 4 4
67 60 43 29 20 14 8 7 5 4 4 4 4 4 4 4 4 4 4 4 4 4 4 4 3 3 3 3 3 3 3 3 3 3 4 4 4 5 4 4 4 4 4
57 38 33 19 13 9 7 5 5 4 4 4 4 5 5 5 5 5 4 4 4 4 4 4 3 3 3 3 3 3 3 3 3 3 4 4 4 5 5 5 5 4 4
36 34 22 16 9 7 6 5 5 5 5 5 5 5 5 5 5 5 5 5 5 4 4 3 3 2 2 2 2 2 4 4 4 4 4 5 5 5 5 5 5 5 5
34 24 18 9 8 7 5 5 5 5 5 5 5 6 5 5 5 5 5 5 4 3 3 3 3 3 2 2 2 3 4 4 4 4 5 5 6 6 6 6 5 5 5
25 20 10 8 7 6 5 5 5 5 6 6 6 5 5 5 5 5 4 4 4 4 4 4 3 3 3 2 3 3 4 4 5 5 6 6 6 6 6 6 6 6 6
19 11 9 8 6 6 5 5 6 6 6 6 6 6 6 6 5 4 4 4 5 5 5 5 4 4 3 3 3 3 4 5 6 7 7 6 7 7 7 7 7 7 7
10 9 8 7 6 5 5 5 6 6 6 5 6 6 5 5 5 4 4 4 5 5 6 5 4 4 4 4 3 3 4 5 7 8 8 8 8 8 8 8 8 8 8
9 8 7 6 6 5 5 6 7 7 6 6 6 5 6 5 5 5 5 5 5 6 6 6 5 5 4 5 4 4 4 6 7 8 9 10 10 10 9 9 9 9 10
7 7 6 6 5 5 5 6 7 7 6 5 5 5 5 5 5 6 6 5 5 6 6 7 6 5 5 5 6 5 5 6 8 9 9 10 11 12 12 11 11 11 11
6 6 6 6 5 5 6 7 7 6 5 5 6 5 5 6 6 6 6 6 5 6 7 7 7 6 6 6 6 7 6 6 7 9 10 11 12 12 13 13 12 10 8
6 6 5 5 5 6 7 7 7 6 6 6 6 6 6 7 7 6 6 5 5 5 6 7 7 7 7 6 6 7 7 7 7 8 9 11 12 12 11 10 9 8 9
6 5 5 5 5 6 7 7 7 6 6 7 7 8 8 7 7 6 5 5 5 5 5 6 6 6 7 7 6 6 7 8 9 8 8 9 10 10 9 8 8 8 9
5 5 5 5 6 7 7 7 6 5 6 8 7 7 8 7 6 5 4 4 4 5 5 5 5 6 6 7 6 6 6 7 8 9 10 10 9 9 9 9 9 8 9
4 5 5 5 6 7 6 6 5 6 7 7 7 7 7 6 5 5 4 5 4 4 5 5 5 5 5 6 6 6 6 6 6 7 8 9 10 10 10 10 10 10 10
4 5 5 6 7 7 6 6 5 7 7 7 6 6 6 6 6 5 4 4 4 4 4 4 5 4 5 5 5 5 5 5 6 6 6 6 7 8 10 10 10 10 10
5 5 6 6 6 6 6 5 7 7 7 7 6 7 6 6 6 5 4 4 4 4 4 4 4 4 4 4 4 4 4 5 5 6 6 6 6 6 6 7 8 9 9
5 5 6 6 6 6 5 6 8 8 7 7 7 7 6 6 5 5 4 4 4 4 4 4 4 4 4 4 4 4 4 4 4 5 5 5 6 6 5 5 6 6 7
5 5 6 5 6 5 5 6 8 8 7 7 7 6 5 4 4 4 4 4 4 4 4 4 4 3 4 4 4 3 3 3 4 4 4 5 5 5 5 5 5 5 5

GFSGL_250_rhum_015.txt.gz
RH
61 61 56 59 59 54 50 48 48 48 52 48 46 35 22 18 11 7 7 6 5 4 3 3 3 3 3 3 3 3 3 2 3 3 2 2 2 3 3 3 4 6 8
52 60 63 58 48 53 58 61 62 56 47 38 28 21 15 9 7 7 5 4 3 3 3 3 3 3 3 3 3 3 3 3 3 3 3 2 2 2 2 3 4 4 4
64 64 60 56 63 76 70 61 58 41 30 23 19 14 8 7 6 5 4 3 3 3 3 3 3 4 4 3 3 3 3 3 3 3 3 3 3 2 2 2 3 3 4
66 64 65 66 74 72 61 53 36 24 21 14 10 8 7 6 4 4 4 3 3 3 4 4 4 4 3 4 4 3 3 3 3 3 3 3 3 3 2 3 3 3 3
65 66 68 78 81 70 50 35 27 19 13 10 8 7 6 4 4 4 4 4 4 4 4 4 4 4 4 4 4 4 3 3 3 3 3 3 3 3 3 3 3 4 3
68 79 86 83 72 55 42 31 18 13 9 8 7 5 4 4 4 4 4 4 4 4 4 4 4 3 3 3 3 3 3 3 3 2 3 3 3 3 3 3 4 4 3
80 86 87 74 66 49 33 20 13 9 8 7 5 4 4 4 5 5 4 4 5 5 5 5 4 3 3 3 2 2 2 2 2 2 2 3 3 3 3 4 4 4 4
94 93 70 62 51 35 21 13 8 9 8 6 5 4 4 5 5 5 5 5 5 5 4 4 4 4 3 3 3 3 3 3 3 2 2 3 3 3 4 4 4 4 4
98 77 62 48 32 24 15 8 8 8 6 5 5 4 5 6 6 6 5 4 4 4 4 4 4 3 3 3 3 2 2 3 3 3 3 3 3 3 4 4 4 5 4
78 58 48 33 25 17 10 8 8 7 6 5 5 5 6 6 6 5 5 5 4 4 4 3 3 3 3 2 2 2 2 2 2 3 3 3 4 4 4 5 5 5 4
66 51 37 28 16 10 8 8 7 6 5 5 5 6 7 6 6 6 6 5 4 3 3 3 3 3 3 3 2 2 2 2 3 3 4 4 4 4 5 6 6 6 5
56 39 28 17 11 8 9 7 6 5 5 5 6 7 7 6 6 5 5 4 4 4 3 4 4 4 4 3 3 2 2 3 3 4 4 4 5 5 6 6 6 6 7
46 28 17 11 9 8 8 6 6 5 5 5 7 7 6 6 5 5 4 4 4 4 4 4 4 5 4 4 3 3 3 3 4 4 5 5 6 6 6 6 6 6 6
35 18 12 9 9 7 6 6 5 4 5 6 7 6 6 5 5 4 4 4 5 6 5 4 5 5 5 4 4 3 3 3 4 5 5 6 6 6 7 6 6 6 6
18 12 10 9 8 6 6 5 5 4 5 7 7 6 5 5 5 5 5 5 6 6 5 5 5 6 6 4 4 4 4 4 4 5 6 7 7 7 7 7 7 7 7
13 11 10 7 6 5 5 4 4 5 6 7 6 6 5 5 6 7 7 7 6 6 6 5 6 6 6 5 5 5 5 4 5 5 7 8 9 9 9 9 8 8 8
12 10 8 6 6 5 4 4 5 6 7 6 6 5 6 6 7 7 7 7 6 5 5 5 6 6 7 6 5 5 6 6 5 6 7 8 10 11 11 11 11 11 11
11 8 6 6 5 4 4 5 5 6 7 7 6 6 8 7 6 6 6 6 6 5 5 5 5 6 6 7 7 6 6 7 6 6 7 9 11 12 12 13 12 12 12
8 6 6 5 4 4 5 5 6 6 6 6 6 7 7 7 7 6 6 6 5 5 5 5 5 5 5 6 7 7 6 7 8 7 7 7 9 11 12 13 13 14 13
6 5 5 4 5 6 6 6 6 6 6 5 6 7 7 7 7 7 7 6 5 5 5 5 5 5 5 5 6 7 7 6 7 8 8 8 8 8 10 11 12 12 12
5 5 4 5 6 6 6 6 6 6 6 6 7 8 7 7 8 8 8 6 5 4 5 5 5 5 5 5 5 6 6 7 6 7 8 8 8 8 8 9 9 10 9
5 4 4 5 6 6 6 6 6 6 5 6 8 8 8 8 7 8 7 6 6 5 4 4 4 5 5 5 5 5 5 6 6 6 6 7 8 8 8 9 9 9 8
4 4 5 6 6 6 6 5 5 5 5 6 8 8 8 8 7 6 6 5 5 5 4 4 4 4 5 5 5 4 4 5 5 6 6 6 6 7 7 8 8 9 9
4 5 6 5 6 5 5 5 5 5 6 8 9 8 8 7 5 5 5 5 5 4 4 4 4 4 4 5 5 5 4 4 4 5 5 5 5 6 6 7 6 6 8
5 5 5 5 5 5 5 4 4 5 7 9 9 8 8 6 5 5 4 4 4 4 4 4 4 4 4 4 4 4 4 4 4 4 4 4 5 5 5 6 6 6 6
5 5 5 5 4 4 4 4 5 6 8 9 8 8 7 5 5 4 4 4 4 3 4 4 4 4 4 4 4 4 4 4 3 3 3 4 4 4 4 5 5 5 5